Flag for Morocco Weather past 2 weeks in Tangier, Morocco

Now
73 °F

Passing clouds.


Feels Like: 76 °F
Forecast: 64 / 83 °F
Wind: 15 mph from East

Location: Tanger Aerodrome

Current Time: Oct 20, 2014 at 6:02:28 AM

Latest Report: Oct 20, 2014 at 4:00 AM


Visibility: N/A

Pressure: 29.95 "Hg

Humidity: 61%

Dew point: 59 °F

Location of TangierLocation

Historic Weather in Tangier — Graph

°F

Tangier temperature yesterday

Maximum temperature yesterday: 81 °F (at 1:00 PM)
Minimum temperature yesterday: 66 °F (at 6:30 AM)
Average temperature yesterday: 73 °F

Past Weeks' High & Low Weather Summary

 TemperatureHumidityPressure
High84 °F (Oct 17, 1:30 PM)94% (Oct 8, 3:30 AM)30.07 "Hg (Oct 8, 3:30 AM)
Low57 °F (Oct 8, 3:30 AM)34% (Oct 20, 12:00 AM)29.80 "Hg (Oct 11, 1:00 PM)
Average69 °F74%29.98 "Hg
* Reported Oct 5 4:00 AM — Oct 20 4:00 AM, Tangier, Weather by CustomWeather, © 2014

Note: Actual official high and low records may vary slightly from our data, if they occured in-between our weather recording intervals... More about our weather records

Advertising

Tangier weather history for previous 24 hours

 ConditionsComfort  
Time TempWeatherWind HumidityBarometerVisibility
4:00 AM
Oct 20
73 °FPassing clouds.15 mph61%29.95 "HgN/A
3:30 AM73 °FPassing clouds.16 mph57%29.95 "HgN/A
3:00 AM73 °FPassing clouds.17 mph57%29.95 "HgN/A
2:30 AM73 °FPassing clouds.17 mph57%29.95 "HgN/A
2:00 AM73 °FPassing clouds.20 mph57%29.95 "HgN/A
1:30 AM73 °FPassing clouds.21 mph57%29.95 "HgN/A
1:00 AM73 °FPassing clouds.22 mph57%29.95 "HgN/A
12:30 AM73 °FPassing clouds.22 mph50%29.95 "HgN/A
12:00 AM79 °FPassing clouds.22 mph34%29.95 "HgN/A
11:30 PM
Oct 19
77 °FPassing clouds.18 mph39%29.95 "HgN/A
11:00 PM77 °FPassing clouds.18 mph42%29.95 "HgN/A
10:30 PM77 °FPassing clouds.20 mph44%29.95 "HgN/A
10:00 PM75 °FPassing clouds.16 mph54%29.95 "HgN/A
9:30 PM73 °FPassing clouds.17 mph61%29.95 "HgN/A
9:00 PM73 °FPassing clouds.20 mph61%29.95 "HgN/A
8:30 PM73 °FPassing clouds.17 mph61%29.95 "HgN/A
8:00 PM73 °FPassing clouds.16 mph57%29.95 "HgN/A
7:30 PM73 °FPassing clouds.16 mph57%29.95 "HgN/A
7:00 PM72 °FPassing clouds.16 mph69%29.92 "HgN/A
6:30 PM73 °FPassing clouds.17 mph65%29.92 "HgN/A
6:00 PM73 °FPassing clouds.17 mph69%29.92 "HgN/A
5:30 PM73 °FPartly sunny.20 mph69%29.92 "HgN/A
5:00 PM73 °FPartly sunny.25 mph74%29.92 "HgN/A
4:30 PM73 °FPartly sunny.25 mph74%29.92 "HgN/A
4:00 PM75 °FPartly sunny.24 mph69%29.92 "HgN/A
3:30 PM77 °FPartly sunny.24 mph65%29.92 "HgN/A
3:00 PM77 °FPartly sunny.25 mph65%29.92 "HgN/A
2:30 PM79 °FPartly sunny.23 mph61%29.92 "HgN/A
2:00 PM81 °FPartly sunny.20 mph58%29.95 "HgN/A
1:30 PM81 °FPartly sunny.18 mph58%29.98 "HgN/A
1:00 PM81 °FPartly sunny.17 mph58%29.98 "HgN/A
12:30 PM79 °FPartly sunny.20 mph61%29.98 "HgN/A
12:00 PM79 °FPartly sunny.16 mph58%30.01 "HgN/A
11:30 AM79 °FPartly sunny.13 mph58%30.01 "HgN/A
11:00 AM77 °FPartly sunny.14 mph57%30.01 "HgN/A
10:30 AM77 °FPartly sunny.13 mph57%30.01 "HgN/A
10:00 AM75 °FPartly sunny.13 mph65%30.01 "HgN/A
9:30 AM73 °FPartly sunny.10 mph69%30.01 "HgN/A
9:00 AM70 °FPartly sunny.10 mph78%30.01 "HgN/A
8:30 AM68 °FPartly sunny.10 mph83%29.98 "HgN/A
8:00 AM66 °FSunny.12 mph83%29.98 "Hg10 mi
7:30 AM66 °FSunny.10 mph83%29.98 "Hg10 mi
7:00 AM66 °FClear.10 mph83%29.98 "Hg5 mi
6:30 AM66 °FClear.9 mph83%29.98 "Hg5 mi
6:00 AM68 °FClear.8 mph78%29.98 "Hg5 mi
Weather by CustomWeather, © 2014

See weather overviewHow to use our weather pages